Regional Weather Roundup
Issued by NWS

Home | Current Version | Previous Version | Graphics & Text | Print | Product List | Glossary On
Versions: 1 2 3 4 5 6 7 8 9 10 11 12 13 14 15 16 17 18 19 20 21 22 23 24 25 26 27 28 29 30 31 32 33 34 35 36 37 38 39 40 41 42 43 44 45 46 47 48 49 50
000
ASUS43 KLSX 040910
RWRMO

WEATHER SUMMARY FOR MISSOURI
NATIONAL WEATHER SERVICE SPRINGFIELD MO
400 AM CDT TUE AUG 04 2015

NOTE: "FAIR" INDICATES FEW OR NO CLOUDS BELOW 12,000 FEET WITH NO
       SIGNIFICANT WEATHER AND/OR OBSTRUCTIONS TO VISIBILITY.
       CURRENT SKY AND/OR WEATHER CONDITIONS ARE NOT AVAILABLE FOR
       CHILLICOTHE AND FARMINGTON.

MOZ001>031-035>038-043-044-053-054-041000-
...NORTHERN AND WESTERN MISSOURI...

CITY           SKY/WX    TMP DP  RH WIND       PRES   REMARKS
KANSAS CTY INT PTCLDY    73  66  78 E13       29.94R
KANSAS C DTWN  PTCLDY    75  68  78 E5        29.92S
LEE`S SUMMIT   PTCLDY    72  67  84 E6        29.94S
ST JOSEPH      PTCLDY    72  66  81 NE3       29.94R
CHILLICOTHE      N/A     71  65  81 E3        29.97R
KIRKSVILLE     CLOUDY    66  62  87 CALM      30.00R

$$
MOZ066>068-077>081-088>096-101>105-041000-
...SOUTHWEST MISSOURI...

CITY           SKY/WX    TMP DP  RH WIND       PRES   REMARKS
SPRINGFIELD    CLEAR     71  67  87 S5        29.96F
JOPLIN         PTCLDY    72  66  81 S3        29.94F

$$
MOZ032>034-039>042-045>050-055>058-069>072-041000-
...CENTRAL MISSOURI...

CITY           SKY/WX    TMP DP  RH WIND       PRES   REMARKS
COLUMBIA       PTCLDY    72  66  81 NE9       29.96R
JEFFERSON CITY PTCLDY    74  67  78 CALM      29.94R
ROLLA          CLEAR     71  69  93 S3        29.95R
SEDALIA        CLEAR     73  69  87 NE7       29.96R
WHITEMAN AFB   PTCLDY    70  69  96 E3        29.92S
WARRENSBURG    PTCLDY    70  68  94 CALM      29.93S
OSAGE BEACH    CLEAR     72  68  88 CALM      29.95S

$$
MOZ051-052-059>065-041000-
...EAST CENTRAL MISSOURI...

CITY           SKY/WX    TMP DP  RH WIND       PRES   REMARKS
ST LOUIS INTL  CLOUDY    77  65  66 NE5       29.95S
SPIRIT OF STL  MOCLDY    73  72  96 CALM      29.93S
ST CHARLES     CLOUDY    74  67  78 NE7       29.94R

$$
MOZ072>076-082>087-097>100-106>115-041000-
...SOUTH CENTRAL AND SOUTHEAST MISSOURI...

CITY           SKY/WX    TMP DP  RH WIND       PRES   REMARKS
CAPE GIRARDEAU PTCLDY    73  72  96 CALM      29.93R
FARMINGTON     PTCLDY    72  70  94 CALM      30.00R
POPLAR BLUFF   CLEAR     75  73  93 CALM      29.93R
WEST PLAINS    CLEAR     71  67  87 CALM      29.99R

$$


USA.gov is the U.S. government's official web portal to all federal, state and local government web resources and services.